Weather History for Marshall, MI

Change the Weather History Date:

Saturday, May 17, 2014

  Actual Average (KBTL) Record (KBTL)
Temperature  
Mean Temperature 46 °F 58 °F  
Max Temperature 54 °F 71 °F 87 °F (1999)
Min Temperature 37 °F 46 °F 34 °F (2002)
Degree Days  
Heating Degree Days 20 8  
Month to date heating degree days 164  
Since 1 July heating degree days 6553  
Cooling Degree Days 0 1  
Month to date cooling degree days 11  
Year to date cooling degree days 18  
Moisture  
Dew Point 33 °F    
Average Humidity 65    
Maximum Humidity 84    
Minimum Humidity 34    
Precipitation  
Precipitation 0.06 in 0.12 in 0.55 in (1999)
Month to date precipitation 1.98  
Year to date precipitation 9.69  
Sea Level Pressure  
Sea Level Pressure 30.10 in    
Wind  
Wind Speed 5 mph (West)    
Max Wind Speed 15 mph    
Max Gust Speed 21 mph    
Visibility 10 miles    
Events Rain    
T = Trace of Precipitation, MM = Missing Value Source: NWS Daily Summary

Daily Weather History Graph

Daily Weather History Graph

Search for Another Location

Airport:

Trip Planner

Search our weather history database for the weather conditions in past years. The results will help you decide how hot, cold, wet, or windy it might be!

Date:

Astronomy

May. 17, 2014 Rise Set
Actual Time 6:16 AM EDT 8:56 PM EDT
Civil Twilight 5:44 AM EDT 9:28 PM EDT
Nautical Twilight 5:03 AM EDT 10:09 PM EDT
Astronomical Twilight 4:17 AM EDT 10:55 PM EDT
Moon 11:55 PM EDT (5/17) 8:58 AM EDT (5/17)
Length of Visible Light 15h 44m
Length of Day
14h 39m
Waning Gibbous, 89% of the Moon is Illuminated
May 17
Waning Gibbous
May 21
Last Quarter
May 28
New
Jun 5
First Quarter
Jun 13
Full

Hourly Weather History & Observations

Time (EDT) Temp. Windchill Dew Point Humidity Pressure Visibility Wind Dir Wind Speed Gust Speed Precip Events Conditions
12:14 AM 42.1 °F 38.4 °F 33.4 °F 71% 30.04 in 10.0 mi WNW 5.8 mph - N/A   Overcast
12:33 AM 41.7 °F 38.8 °F 33.3 °F 72% 30.04 in 10.0 mi WNW 4.6 mph - N/A   Overcast
12:54 AM 41.5 °F 37.1 °F 33.1 °F 72% 30.04 in 10.0 mi WNW 6.9 mph - N/A   Overcast
1:14 AM 41.4 °F 39.4 °F 33.6 °F 74% 30.04 in 10.0 mi NW 3.5 mph - N/A   Overcast
1:33 AM 41.0 °F 36.4 °F 32.9 °F 73% 30.04 in 10.0 mi West 6.9 mph - N/A   Overcast
1:54 AM 40.8 °F 38.8 °F 33.1 °F 74% 30.04 in 10.0 mi WNW 3.5 mph - N/A   Overcast
2:14 AM 40.6 °F 37.5 °F 32.9 °F 74% 30.04 in 10.0 mi WNW 4.6 mph - N/A   Overcast
2:34 AM 40.6 °F 37.5 °F 33.3 °F 75% 30.04 in 10.0 mi WNW 4.6 mph - N/A   Overcast
2:54 AM 40.5 °F 37.3 °F 34.0 °F 78% 30.03 in 10.0 mi WNW 4.6 mph - N/A   Overcast
3:14 AM 40.3 °F 37.1 °F 34.2 °F 79% 30.03 in 10.0 mi West 4.6 mph - N/A   Overcast
3:34 AM 40.1 °F 38.0 °F 34.3 °F 80% 30.03 in 10.0 mi WNW 3.5 mph - N/A   Overcast
3:54 AM 39.9 °F - 34.5 °F 81% 30.03 in 10.0 mi Calm Calm - N/A   Overcast
4:14 AM 39.6 °F 37.4 °F 34.0 °F 80% 30.03 in 10.0 mi WNW 3.5 mph - N/A   Overcast
4:34 AM 39.2 °F 35.9 °F 33.3 °F 79% 30.03 in 10.0 mi WNW 4.6 mph - N/A   Overcast
4:54 AM 38.8 °F 36.5 °F 33.3 °F 80% 30.03 in 10.0 mi WNW 3.5 mph - N/A   Overcast
5:14 AM 38.8 °F 35.4 °F 33.6 °F 82% 30.04 in 10.0 mi WNW 4.6 mph - N/A   Overcast
5:34 AM 38.5 °F 35.0 °F 33.1 °F 81% 30.04 in 10.0 mi WNW 4.6 mph - N/A   Overcast
5:54 AM 38.3 °F 34.8 °F 33.4 °F 83% 30.05 in 10.0 mi WNW 4.6 mph - N/A   Overcast
6:14 AM 37.8 °F 35.3 °F 33.1 °F 83% 30.05 in 10.0 mi WNW 3.5 mph - N/A   Overcast
6:34 AM 37.6 °F 33.1 °F 32.9 °F 83% 30.06 in 10.0 mi West 5.8 mph - N/A   Overcast
6:54 AM 37.4 °F 32.8 °F 32.4 °F 82% 30.07 in 10.0 mi WNW 5.8 mph - N/A   Overcast
7:14 AM 37.4 °F 32.1 °F 32.4 °F 82% 30.08 in 10.0 mi West 6.9 mph - N/A   Overcast
7:34 AM 37.6 °F 33.1 °F 33.1 °F 84% 30.08 in 10.0 mi WSW 5.8 mph - N/A   Overcast
7:54 AM 38.3 °F 33.9 °F 33.4 °F 83% 30.09 in 10.0 mi West 5.8 mph - N/A   Overcast
8:14 AM 38.5 °F 34.1 °F 33.4 °F 82% 30.09 in 10.0 mi West 5.8 mph - N/A   Overcast
8:34 AM 39.2 °F 35.9 °F 33.3 °F 79% 30.10 in 10.0 mi WSW 4.6 mph - N/A   Overcast
8:54 AM 40.5 °F 35.8 °F 33.8 °F 77% 30.10 in 10.0 mi West 6.9 mph - N/A   Overcast
9:14 AM 40.8 °F 38.8 °F 33.4 °F 75% 30.10 in 10.0 mi West 3.5 mph - N/A   Overcast
9:34 AM 41.2 °F - 33.3 °F 73% 30.11 in 10.0 mi Calm Calm - N/A   Overcast
9:54 AM 42.3 °F 40.5 °F 33.1 °F 70% 30.10 in 10.0 mi SSW 3.5 mph - N/A   Overcast
10:14 AM 44.1 °F 40.8 °F 33.3 °F 66% 30.11 in 10.0 mi SW 5.8 mph - N/A   Overcast
10:34 AM 45.5 °F 42.5 °F 34.0 °F 64% 30.11 in 10.0 mi West 5.8 mph - N/A   Overcast
10:54 AM 46.6 °F - 33.6 °F 61% 30.11 in 10.0 mi WSW 9.2 mph - N/A   Overcast
11:14 AM 47.8 °F - 34.9 °F 61% 30.11 in 10.0 mi West 8.1 mph - N/A   Overcast
11:34 AM 48.4 °F - 34.7 °F 59% 30.11 in 10.0 mi West 8.1 mph - N/A   Overcast
11:54 AM 49.1 °F - 34.3 °F 57% 30.11 in 10.0 mi WSW 8.1 mph - N/A   Overcast
12:14 PM 49.5 °F - 35.1 °F 58% 30.11 in 10.0 mi WSW 4.6 mph - N/A   Mostly Cloudy
12:34 PM 47.8 °F - 36.0 °F 63% 30.11 in 10.0 mi WNW 13.8 mph 20.7 mph N/A Rain Light Rain
12:53 PM 41.0 °F 34.7 °F 35.6 °F 81% 30.13 in 2.5 mi South 10.4 mph - 0.06 in Rain Light Rain
1:14 PM 45.3 °F 41.6 °F 37.6 °F 74% 30.11 in 10.0 mi SSE 6.9 mph - N/A   Overcast
1:34 PM 47.7 °F - 37.8 °F 69% 30.11 in 10.0 mi ESE 6.9 mph - N/A   Scattered Clouds
1:53 PM 47.5 °F - 35.1 °F 62% 30.11 in 10.0 mi SSE 4.6 mph - N/A   Mostly Cloudy
2:14 PM 48.7 °F - 35.1 °F 59% 30.11 in 10.0 mi SW 8.1 mph - N/A   Overcast
2:34 PM 49.1 °F - 37.9 °F 65% 30.11 in 10.0 mi SSW 6.9 mph - N/A Rain Light Rain
2:53 PM 49.3 °F - 36.7 °F 62% 30.11 in 10.0 mi South 10.4 mph - N/A   Mostly Cloudy
3:14 PM 48.7 °F - 34.9 °F 59% 30.11 in 10.0 mi South 3.5 mph - N/A   Overcast
3:34 PM 50.9 °F - 36.1 °F 57% 30.10 in 10.0 mi ENE 4.6 mph - N/A   Mostly Cloudy
3:54 PM 48.9 °F - 35.1 °F 59% 30.11 in 10.0 mi NW 6.9 mph - N/A   Overcast
4:14 PM 49.6 °F - 34.5 °F 56% 30.11 in 10.0 mi Calm Calm - N/A   Overcast
4:34 PM 50.4 °F - 33.8 °F 53% 30.11 in 10.0 mi Calm Calm - N/A   Overcast
4:54 PM 50.7 °F - 34.7 °F 54% 30.11 in 10.0 mi SSW 3.5 mph - N/A   Overcast
5:14 PM 52.5 °F - 36.3 °F 54% 30.11 in 10.0 mi WSW 3.5 mph - N/A   Overcast
5:34 PM 50.9 °F - 36.7 °F 58% 30.11 in 10.0 mi SSW 5.8 mph - N/A   Overcast
5:54 PM 51.3 °F - 36.3 °F 57% 30.11 in 10.0 mi South 4.6 mph - N/A   Scattered Clouds
6:14 PM 54.0 °F - 31.6 °F 43% 30.11 in 10.0 mi West 9.2 mph 18.4 mph N/A   Scattered Clouds
6:34 PM 54.9 °F - 28.4 °F 36% 30.11 in 10.0 mi WNW 8.1 mph - N/A   Scattered Clouds
6:54 PM 54.3 °F - 26.4 °F 34% 30.11 in 10.0 mi WNW 13.8 mph 19.6 mph N/A   Scattered Clouds
7:14 PM 53.4 °F - 26.2 °F 35% 30.11 in 10.0 mi WNW 9.2 mph 18.4 mph N/A   Scattered Clouds
7:34 PM 53.2 °F - 26.2 °F 35% 30.11 in 10.0 mi West 13.8 mph - N/A   Mostly Cloudy
7:54 PM 51.6 °F - 25.9 °F 37% 30.12 in 10.0 mi West 15.0 mph 18.4 mph N/A   Scattered Clouds
8:14 PM 50.9 °F - 25.7 °F 38% 30.13 in 10.0 mi West 11.5 mph - N/A   Scattered Clouds
8:34 PM 49.3 °F - 26.4 °F 41% 30.14 in 10.0 mi West 6.9 mph - N/A   Clear
8:54 PM 46.6 °F - 27.7 °F 48% 30.14 in 10.0 mi Calm Calm - N/A   Clear
9:14 PM 44.8 °F - 27.7 °F 51% 30.14 in 10.0 mi Calm Calm - N/A   Clear
9:34 PM 45.1 °F - 29.3 °F 54% 30.15 in 10.0 mi Calm Calm - N/A   Clear
9:54 PM 44.6 °F - 28.6 °F 53% 30.16 in 10.0 mi Calm Calm - N/A   Clear
10:14 PM 41.9 °F - 32.4 °F 69% 30.16 in 10.0 mi Calm Calm - N/A   Clear
10:34 PM 41.2 °F - 32.9 °F 72% 30.16 in 10.0 mi Calm Calm - N/A   Clear
10:54 PM 42.1 °F 40.2 °F 29.8 °F 62% 30.17 in 10.0 mi SSW 3.5 mph - N/A   Clear
11:14 PM 41.2 °F 36.6 °F 30.9 °F 67% 30.17 in 10.0 mi SSW 6.9 mph - N/A   Clear
11:34 PM 41.4 °F 39.4 °F 30.0 °F 64% 30.18 in 10.0 mi SSW 3.5 mph - N/A   Clear
11:54 PM 41.4 °F 39.4 °F 29.3 °F 62% 30.18 in 10.0 mi SSW 3.5 mph - N/A   Clear